Regional Weather Roundup
Issued by NWS

Home | Current Version | Previous Version | Graphics & Text | Print | Product List | Glossary On
Versions: 1 2 3 4 5 6 7 8 9 10 11 12 13 14 15 16 17 18 19 20 21 22 23 24 25 26 27
000
ASUS45 KBOU 192206
RWRCO

WEATHER ROUNDUP FOR COLORADO
NATIONAL WEATHER SERVICE DENVER/BOULDER CO
400 PM MDT SAT APR 19 2014

NOTE: "FAIR" INDICATES FEW OR NO CLOUDS BELOW 12000 FEET WITH NO
SIGNIFICANT WEATHER AND/OR OBSTRUCTIONS TO VISIBILITY.

COZ001>005-013-030-031-192300-
...NORTHWEST COLORADO...

CITY           SKY/WX    TMP DP  RH WIND       PRES   REMARKS
CRAIG          CLOUDY    57  38  48 SW7       30.08F
HAYDEN         CLOUDY    52  39  62 CALM      30.13S
MEEKER         PTSUNNY   56  43  61 E9        30.08F
MOUNT WERNER   CLOUDY    41  32  70 NW16G22   30.24F
STEAMBOAT SPGS CLOUDY    56  33  41 W14       30.10S
WALDEN         PTSUNNY   54  28  37 W10       30.11F
$$

COZ006>008-011-192300-
...WEST CENTRAL VALLEYS...

CITY           SKY/WX    TMP DP  RH WIND       PRES   REMARKS
GRAND JUNCTION MOSUNNY   62  42  47 W7        30.03F
MONTROSE       CLOUDY    63  39  41 NW6       30.06F
EAGLE          PTSUNNY   63  34  34 W15G22    30.06S
RIFLE          MOSUNNY   62  39  42 W13       30.03F
DELTA          CLOUDY    66  39  37 SW3       30.03F
NUCLA            N/A     61  43  51 N13       30.11F
$$

COZ017>023-064>068-192300-
...SOUTHWEST COLORADO...

CITY           SKY/WX    TMP DP  RH WIND       PRES   REMARKS
DURANGO        PTSUNNY   61  33  35 VRB5      30.08F
CORTEZ         PTSUNNY   63  31  30 CALM      30.06F
PAGOSA SPRINGS PTSUNNY   58  31  35 W6        30.12F
TELLURIDE      PTSUNNY   52  30  43 W7        30.16F
WOLF CREEK PAS CLOUDY    34  28  80 SW9       30.29S WCI  26
$$

COZ009-010-012-014-032>034-037-058>063-192300-
...CENTRAL COLORADO...

CITY           SKY/WX    TMP DP  RH WIND       PRES   REMARKS
ASPEN          PTSUNNY   59  28  30 CALM      30.07F
BUENA VISTA    CLOUDY    56  29  35 NW16      30.11R
COPPER MTN     CLOUDY    37  32  81 W16       30.27F THUNDER
BERTHOUD PASS  TSTM      30  19  64 MISG      30.31F VSB<1/4
COTTONWOOD PAS PTSUNNY   52  28  40 W9G21     30.18F
GUNNISON       PTSUNNY   59  28  31 W15G21    30.11F
KREMMLING      CLOUDY    52  36  54 S12       30.11R
LEADVILLE      PTSUNNY   46  27  47 NW5       30.16F
MONARCH PASS   FLURRIES  36  32  87 NW9       30.39F
SALIDA         CLOUDY    58  32  37 W10G23    30.15S
SUNLIGHT       LGT RAIN  39  36  87 CALM      30.25F
WILKERSON PASS MIX PCPN  36  32  87 CALM      30.28F VSB 1
$$

COZ069>075-192300-
...SAN LUIS VALLEY/SANGRE DE CRISTO MOUNTAINS...

CITY           SKY/WX    TMP DP  RH WIND       PRES   REMARKS
ALAMOSA        MOSUNNY   65  23  20 S8        30.06F
LA VETA PASS   CLOUDY    45  32  61 NE10      30.21F THUNDER
SAGUACHE       PTSUNNY   63  27  25 SE10      30.07F
$$

COZ035-036-038>040-192300-
...NORTHERN COLORADO FRONT RANGE...

CITY           SKY/WX    TMP DP  RH WIND       PRES   REMARKS
DENVER INTL AP PTSUNNY   65  36  34 E16G22    30.03F
DMNS CITY PARK   N/A     63  36  36 SW21G33   30.03R
AURORA         PTSUNNY   64  37  36 E16       30.03F
FRONT RANGE AP NOT AVBL
ERIE MUNI ARPT PTSUNNY   65  36  33 E12G18    30.02S THUNDER
BOULDER MUN AP TSTM      59  41  51 W14       30.03S
CENTENNIAL     PTSUNNY   62  33  33 S14G21    30.04S
BROOMFIELD     PTSUNNY   64  36  34 E9G16     30.04F
FORT COLLINS   SUNNY     66  39  37 SE8       30.02F
LONGMONT       LGT RAIN  65  40  40 SW12      30.04R
$$

COZ041-046-047-076>085-087-088-192300-
...PIKES PEAK/PALMER DIVIDE AND SOUTHERN FOOTHILLS...

CITY           SKY/WX    TMP DP  RH WIND       PRES   REMARKS
COLO. SPRINGS  PTSUNNY   66  31  27 E17       30.04F
A. F. ACADEMY  CLOUDY    62  30  29 E13G18    30.06F
ELLICOTT       NOT AVBL
FALCON         CLOUDY    61  31  31 E12G18    30.09F
FORT CARSON    CLOUDY    67  33  28 NE12      30.02F
LIMON          PTSUNNY   65  32  29 NE17      30.03F
MONUMENT HILL  PTSUNNY   57  30  35 E5        30.09S
TRINIDAD       CLOUDY    71  30  21 VRB3      29.98F
$$

COZ042>045-048>051-090-091-192300-
...NORTHEAST COLORADO...

CITY           SKY/WX    TMP DP  RH WIND       PRES   REMARKS
GREELEY ARPT   MOSUNNY   68  39  34 S7        30.02F
AKRON          PTSUNNY   65  36  34 NE12G17   30.02F
BURLINGTON     PTSUNNY   71  41  33 NE17G23   30.01R
WRAY           CLOUDY    69  38  31 NE15G24   30.00S
STERLING       CLOUDY    63  39  42 NE12      30.00F
HOLYOKE        PTSUNNY   70  37  30 NE13G20   30.01S
FORT MORGAN    CLOUDY    60  35  39 NE10      30.03F
$$

COZ086-089-092>099-192300-
...SOUTHEAST COLORADO...

CITY           SKY/WX    TMP DP  RH WIND       PRES   REMARKS
PUEBLO         PTSUNNY   77  34  21 E22G28    29.93F
LA JUNTA       MOSUNNY   81  31  16 NE5       29.90F
LAMAR          MOSUNNY   83  33  16 NE6       29.87F
SPRINGFIELD      N/A     75  39  27 S30G45    29.93R
$$



USA.gov is the U.S. government's official web portal to all federal, state and local government web resources and services.